Location: Unspecified
(0.0000°N, 0.0000°E)
Time: 02:27:16
(UTC+00:00)

Tiangong - Pass Details

Date: 06 March 2026
Orbit: 380 x 389 km, 41.5° (Epoch: 16 March)

Event Time Altitude Azimuth Distance (km) Brightness Sun altitude
Exits shadow 04:45:24 20° 19° (NNE) 965 0.0 -21.4°
Drops below altitude 10° 04:46:35 10° 29° (NNE) 1,405 1.0 -21.1°
Sets 04:48:43 0° 36° (NE) 2,258 2.2 -20.5°
